FW9300 Weather Reports


time (UTC)temp
C
wind
direction
speed
KPH
gust
KPH
rain 1hr
cm
rain 24hr
cm
rain mn
cm
humidity
%
barometer
mb
20260906234517 30 0.0 0.0 0.00 0.00 0.00 18 1015.1
20260906233017 31 0.0 0.0 0.00 0.00 0.00 17 1015.5
20260906231517 31 0.0 0.0 0.00 0.00 0.00 17 1015.6
20260906230037 32 0.0 0.0 0.00 0.00 0.00 16 1015.0
20260906224517 32 0.0 0.0 0.00 0.00 0.00 16 1015.3
20260906223017 32 0.0 0.0 0.00 0.00 0.00 16 1015.8
20260906221517 32 0.0 0.0 0.00 0.00 0.00 16 1015.7
20260906220017 32 0.0 0.0 0.00 0.00 0.00 16 1015.7
20260906214517 32 0.0 0.0 0.00 0.00 0.00 16 1015.9
20260906213017 31 0.0 0.0 0.00 0.00 0.00 16 1016.8
20260906211517 32 0.0 0.0 0.00 0.00 0.00 16 1017.0
20260906210017 31 0.0 0.0 0.00 0.00 0.00 16 1017.4
20260906204517 31 0.0 0.0 0.00 0.00 0.00 17 1017.8
20260906203017 31 0.0 0.0 0.00 0.00 0.00 17 1017.7
20260906201517 31 0.0 0.0 0.00 0.00 0.00 17 1018.0
20260906200016 30 0.0 0.0 0.00 0.00 0.00 18 1016.5
20260906194517 31 0.0 0.0 0.00 0.00 0.00 18 1017.0
20260906193017 31 0.0 0.0 0.00 0.00 0.00 18 1017.4
20260906191516 30 0.0 0.0 0.00 0.00 0.00 19 1017.5
20260906190017 30 0.0 0.0 0.00 0.00 0.00 19 1019.4
20260906184537 28 0.0 0.0 0.00 0.00 0.00 20 1019.7
20260906183057 28 0.0 0.0 0.00 0.00 0.00 20 1019.6
20260906181516 27 0.0 0.0 0.00 0.00 0.00 22 1020.1
20260906180016 28 0.0 0.0 0.00 0.00 0.00 20 1019.1
20260906174516 28 0.0 0.0 0.00 0.00 0.00 23 1018.7
20260906173016 27 0.0 0.0 0.00 0.00 0.00 25 1019.7
20260906171516 27 0.0 0.0 0.00 0.00 0.00 25 1019.9
20260906170016 27 0.0 0.0 0.00 0.00 0.00 26 1020.1
20260906164516 27 0.0 0.0 0.00 0.00 0.00 27 1020.2
20260906163016 25 0.0 0.0 0.00 0.00 0.00 28 1020.2
20260906161517 25 0.0 0.0 0.00 0.00 0.00 29 1020.5
20260906160016 24 0.0 0.0 0.00 0.00 0.00 29 1020.4
20260906154516 25 0.0 0.0 0.00 0.00 0.00 30 1020.2
20260906153036 23 0.0 0.0 0.00 0.00 0.00 30 1020.0
20260906151516 22 0.0 0.0 0.00 0.00 0.00 39 1020.2
20260906150036 20 0.0 0.0 0.00 0.00 0.00 47 1020.1
20260906144516 19 0.0 0.0 0.00 0.00 0.00 48 1020.1
20260906143036 18 0.0 0.0 0.00 0.00 0.00 48 1020.4
20260906141516 18 0.0 0.0 0.00 0.00 0.00 48 1020.2
20260906140016 18 0.0 0.0 0.00 0.00 0.00 47 1020.7
20260906134516 18 0.0 0.0 0.00 0.00 0.00 45 1020.4
20260906133017 18 0.0 0.0 0.00 0.00 0.00 44 1020.7
20260906131516 18 0.0 0.0 0.00 0.00 0.00 44 1020.7
20260906130015 18 0.0 0.0 0.00 0.00 0.00 42 1020.1
20260906124535 19 0.0 0.0 0.00 0.00 0.00 41 1019.4
20260906123036 20 0.0 0.0 0.00 0.00 0.00 40 1019.5
20260906121535 20 0.0 0.0 0.00 0.00 0.00 40 1019.7
20260906120035 19 0.0 0.0 0.00 0.00 0.00 41 1019.1
20260906114515 18 0.0 0.0 0.00 0.00 0.00 44 1018.8
20260906113015 18 0.0 0.0 0.00 0.00 0.00 44 1018.9
20260906111516 18 0.0 0.0 0.00 0.00 0.00 43 1018.8
20260906110015 18 0.0 0.0 0.00 0.00 0.00 44 1018.4
20260906104516 18 0.0 0.0 0.00 0.00 0.00 43 1018.4
20260906103036 18 0.0 0.0 0.00 0.00 0.00 42 1018.8
20260906101518 19 0.0 0.0 0.00 0.00 0.00 42 1018.8
20260906100017 19 0.0 0.0 0.00 0.00 0.00 41 1018.6
20260906094517 19 0.0 0.0 0.00 0.00 0.00 40 1018.5
20260906093017 19 0.0 0.0 0.00 0.00 0.00 40 1018.3
20260906091517 20 0.0 0.0 0.00 0.00 0.00 38 1018.2
20260906090037 20 0.0 0.0 0.00 0.00 0.00 36 1018.6
20260906084517 21 0.0 0.0 0.00 0.00 0.00 34 1018.5
20260906083017 22 0.0 0.0 0.00 0.00 0.00 31 1018.2
20260906081517 22 0.0 0.0 0.00 0.00 0.00 31 1018.4
20260906080017 21 0.0 0.0 0.00 0.00 0.00 33 1018.0
20260906074517 20 0.0 0.0 0.00 0.00 0.00 35 1018.4
20260906073017 18 0.0 0.0 0.00 0.00 0.00 40 1018.1
20260906071517 19 0.0 0.0 0.00 0.00 0.00 42 1018.0
20260906070037 19 0.0 0.0 0.00 0.00 0.00 41 1018.9
20260906064517 20 0.0 0.0 0.00 0.00 0.00 40 1018.5
20260906063017 21 0.0 0.0 0.00 0.00 0.00 36 1018.4
20260906061518 21 0.0 0.0 0.00 0.00 0.00 35 1018.3
20260906060017 21 0.0 0.0 0.00 0.00 0.00 34 1018.6
20260906054517 20 0.0 0.0 0.00 0.00 0.00 37 1018.7
20260906053017 20 0.0 0.0 0.00 0.00 0.00 38 1018.3
20260906051537 20 0.0 0.0 0.00 0.00 0.00 39 1018.5
20260906050017 21 0.0 0.0 0.00 0.00 0.00 36 1017.9
20260906044517 21 0.0 0.0 0.00 0.00 0.00 34 1018.3
20260906043017 21 0.0 0.0 0.00 0.00 0.00 35 1017.4
20260906041517 20 0.0 0.0 0.00 0.00 0.00 38 1018.0
20260906040017 21 0.0 0.0 0.00 0.00 0.00 37 1018.3
20260906034517 22 0.0 0.0 0.00 0.00 0.00 35 1018.7
20260906033017 22 0.0 0.0 0.00 0.00 0.00 34 1018.0
20260906031517 22 0.0 0.0 0.00 0.00 0.00 35 1017.9
20260906030016 22 0.0 0.0 0.00 0.00 0.00 37 1017.9
20260906024517 22 0.0 0.0 0.00 0.00 0.00 37 1017.6
20260906023016 22 0.0 0.0 0.00 0.00 0.00 37 1016.7
20260906021516 23 0.0 0.0 0.00 0.00 0.00 36 1016.6
20260906020017 23 0.0 0.0 0.00 0.00 0.00 33 1016.5
20260906014516 25 0.0 0.0 0.00 0.00 0.00 31 1016.8
20260906013016 25 0.0 0.0 0.00 0.00 0.00 30 1015.9
20260906011516 26 0.0 0.0 0.00 0.00 0.00 28 1015.5
20260906010016 27 0.0 0.0 0.00 0.00 0.00 28 1017.1
20260906004516 27 0.0 0.0 0.00 0.00 0.00 27 1017.0
20260906003016 28 0.0 0.0 0.00 0.00 0.00 26 1017.0
20260906001516 28 0.0 0.0 0.00 0.00 0.00 25 1017.4
20260906000016 28 0.0 0.0 0.00 0.00 0.00 25 1016.6